CAPE
79 52 0 0 0 6 4 35 42 48 36 65 127 89 82 61 20 30 17 20 119 125 152 117 200 121 131 105 35 22 45 107 102 74 74 34 23 14 15 26 35 27 23 12 20 64 158 159 184
39 2 0 0 11 20 7 1 48 31 59 77 68 69 65 39 1 16 9 65 185 154 246 223 93 63 45 0 0 0 0 0 0 0 0 0 0 0 0 0 0 0 0 0 0 0 0 1 52
4 0 0 0 1 6 6 15 8 19 89 103 30 84 35 6 11 6 37 84 186 107 158 87 3 0 0 0 0 0 0 0 0 0 0 0 0 0 0 0 0 0 0 0 0 0 0 0 0
8 0 0 0 0 0 25 5 0 54 40 0 24 21 49 121 28 21 60 107 103 95 90 0 0 0 0 0 0 0 0 0 0 0 0 0 0 0 0 0 0 0 0 0 0 0 0 0 0
0 0 0 0 0 9 15 8 92 65 22 0 22 13 53 133 116 57 76 46 56 43 34 0 0 0 0 0 0 0 0 0 0 0 0 0 0 0 0 0 0 0 0 0 0 0 0 0 0
0 0 0 0 0 15 89 68 108 90 0 0 10 26 46 28 39 35 29 32 21 2 0 0 0 0 0 0 0 0 0 0 0 0 0 0 0 0 0 0 0 0 0 0 0 0 0 0 0
0 0 0 9 17 40 118 129 150 53 2 8 29 12 16 27 2 10 21 3 0 0 0 0 0 0 0 0 0 0 0 0 0 0 0 0 0 0 0 0 0 0 0 0 0 0 0 0 0
0 0 14 50 54 26 137 174 23 6 97 33 12 1 22 0 3 29 1 0 0 0 0 0 0 0 0 0 0 0 0 0 0 0 0 0 0 0 0 0 0 0 0 0 0 0 0 0 0
0 8 29 30 42 31 134 191 161 128 71 39 42 44 0 49 18 1 0 0 0 0 0 0 0 0 0 0 0 0 0 0 0 0 0 0 0 0 0 0 0 0 0 0 0 0 0 0 0
2 22 51 25 1 6 155 189 248 195 81 33 42 74 89 40 0 0 0 0 0 0 0 0 0 0 0 0 0 0 0 0 0 0 0 0 0 0 0 0 0 0 0 0 0 0 0 0 0
3 25 27 36 16 8 147 244 377 231 61 92 78 119 103 40 0 0 0 0 0 0 0 0 0 0 0 0 0 0 0 0 0 0 0 0 0 0 0 0 0 0 0 0 0 0 0 0 0
17 5 12 32 45 54 117 289 317 356 194 72 75 109 91 43 11 0 0 0 0 0 0 0 0 0 0 0 0 0 0 0 0 0 0 0 0 0 0 0 0 0 0 0 0 0 0 0 0
16 42 35 28 76 57 241 269 341 216 45 16 86 60 43 52 18 0 0 0 0 0 0 0 0 0 0 0 0 0 0 0 0 0 0 0 0 0 0 0 0 0 0 0 0 0 0 0 0
1 28 41 35 160 234 228 305 325 217 0 6 38 27 43 32 0 0 0 0 0 0 0 0 0 0 0 0 0 0 0 0 0 0 0 0 0 0 0 0 0 0 0 0 0 0 0 0 0
5 18 25 32 299 337 337 232 216 200 5 18 47 30 20 4 0 0 0 0 0 0 0 0 0 0 0 0 0 0 0 0 0 0 0 0 0 0 0 0 0 0 0 0 0 0 0 0 0
21 17 22 1 122 371 354 48 427 135 36 9 24 9 5 9 0 0 0 0 0 0 0 0 0 0 0 0 0 3 12 1 0 0 0 4 0 0 0 0 0 0 0 0 0 0 0 0 0
22 0 0 0 17 266 387 166 430 159 78 53 1 0 0 8 2 0 0 0 0 0 0 0 0 0 0 0 15 13 11 1 2 18 41 0 0 0 0 0 0 0 0 0 0 0 0 0 0
0 0 0 0 6 178 236 142 359 282 131 103 3 0 0 0 0 0 0 0 0 0 0 0 0 0 0 0 0 0 17 59 65 62 23 0 0 0 0 0 0 0 0 0 0 0 0 0 0
0 0 0 0 14 68 119 124 227 424 255 196 99 8 0 0 0 0 0 0 0 0 0 0 0 0 0 15 45 47 99 116 104 91 34 17 13 18 15 4 5 10 11 7 7 0 0 1 7
0 2 17 21 48 84 83 80 150 425 360 355 314 154 52 49 46 8 0 2 0 1 0 13 16 26 62 58 78 96 113 128 110 45 41 39 10 7 8 7 8 20 23 28 28 16 10 0 3
0 2 16 17 87 143 154 86 137 363 484 449 403 322 204 181 144 143 127 121 114 78 37 29 77 81 88 101 126 114 82 13 0 8 0 1 6 5 1 9 9 29 19 9 67 63 46 34 29
0 0 6 52 61 49 95 35 48 121 242 466 521 551 396 349 300 381 427 417 375 299 195 135 131 194 182 144 120 94 4 0 0 0 0 0 0 0 0 12 38 47 50 27 48 62 106 90 97
0 1 10 21 15 6 76 72 101 4 22 155 491 526 556 491 526 562 594 506 431 324 273 224 300 171 157 107 56 53 0 0 0 0 0 0 0 21 5 10 27 72 139 74 82 108 144 149 153
10 52 9 0 0 20 23 18 5 0 60 103 209 371 507 405 238 364 353 271 311 245 271 131 40 57 60 26 19 14 0 0 0 7 5 0 0 0 0 25 34 65 147 98 74 71 139 173 162
51 101 71 32 14 10 0 11 42 16 45 58 65 182 90 106 246 227 209 219 237 121 54 47 0 2 3 0 0 17 0 6 15 29 4 0 0 0 0 37 66 64 92 114 142 46 57 87 31
97 141 132 46 19 10 0 3 39 9 12 27 14 28 26 27 72 99 133 141 86 7 70 70 0 0 0 11 0 5 25 37 46 22 9 11 28 12 12 37 50 55 82 162 107 30 4 7 9
62 75 4 8 0 0 0 0 0 0 0 28 21 1 3 28 47 47 75 76 24 16 61 15 3 36 56 31 0 0 23 25 28 17 11 14 34 21 6 18 18 54 77 171 168 73 0 51 53
27 0 0 0 0 0 0 0 0 0 0 75 36 38 20 1 4 0 13 38 9 89 86 0 0 7 6 0 0 2 0 2 1 2 4 20 20 19 3 6 24 54 69 158 244 191 61 95 148
0 0 0 0 0 0 0 0 0 1 0 22 197 91 7 0 0 5 0 0 0 0 0 0 0 0 0 0 0 0 0 0 0 0 2 11 1 1 7 23 28 47 43 92 169 271 340 208 77
0 0 0 0 0 0 0 0 0 0 0 0 2 26 3 0 0 0 0 0 0 0 0 0 0 0 0 0 0 0 0 0 0 0 0 15 12 15 25 35 32 2 1 80 164 303 237 185 104
CIN
-290 -272 0 0 -5 -40 -26 -17 -42 -34 -28 -71 -58 -37 -39 -78 -67 -48 -106 -58 -2 -3 -1 -5 -7 -5 -6 -18 -52 -75 -47 -15 -23 -33 -33 -34 -41 -41 -45 -64 -49 -36 -65 -101 -122 -85 -59 -41 -27
-284 -98 0 0 -23 -16 -37 -36 -53 -64 -89 -80 -70 -64 -58 -80 0 -89 0 -27 -1 -1 0 0 -13 -16 -19 0 0 0 0 0 0 0 0 0 0 0 0 0 0 0 0 0 0 0 0 -32 -111
-82 0 0 -10 -15 -26 -15 -31 -16 -82 -80 -49 -72 -70 -87 -114 -92 0 -68 -24 -2 -2 0 -10 -12 0 0 0 0 0 0 0 0 0 0 0 0 0 0 0 0 0 0 0 0 0 0 0 0
-207 0 0 0 -1 0 -29 -9 0 -70 -92 -3 -100 -88 -87 -48 -83 -93 -56 -21 -18 -23 -20 0 0 0 0 0 0 0 0 0 0 0 0 0 0 0 0 0 0 0 0 0 0 0 0 0 0
0 -5 0 0 0 -44 -46 -25 -80 -56 -67 0 -120 -62 -107 -68 -70 -98 -67 -78 -57 -43 -46 0 0 0 0 0 0 0 0 0 0 0 0 0 0 0 0 0 0 0 0 0 0 0 0 0 0
0 0 0 0 0 -67 -47 -60 -72 -75 0 0 -133 -132 -126 -148 -130 -126 -119 -88 -81 -27 0 0 0 0 0 0 0 0 0 0 0 0 0 0 0 0 0 0 0 0 0 0 0 0 0 0 0
-26 0 0 -74 -59 -41 -35 -59 -66 -40 -36 -96 -145 -96 -177 -145 0 -68 -103 -28 0 0 0 0 0 0 0 0 0 0 0 0 0 0 0 0 0 0 0 0 0 0 0 0 0 0 0 0 0
0 0 -84 -70 -48 -36 -62 -93 -95 -17 -66 -156 -176 -3 -76 0 0 -91 0 0 0 0 0 0 0 0 0 0 0 0 0 0 0 0 0 0 0 0 0 0 0 0 0 0 0 0 0 0 0
0 -80 -51 -53 -56 -57 -71 -58 -94 -124 -111 -162 -168 -154 0 -188 -65 -1 0 0 0 0 0 0 0 0 0 0 0 0 0 0 0 0 0 0 0 0 0 0 0 0 0 0 0 0 0 0 0
-77 -81 -59 -92 -6 -39 -60 -49 -59 -76 -91 -117 -162 -206 -219 -205 0 0 0 0 0 0 0 0 0 0 0 0 0 0 0 0 0 0 0 0 0 0 0 0 0 0 0 0 0 0 0 0 0
-139 -58 -94 -85 -102 -111 -57 -55 -75 -59 -52 -78 -83 -184 -203 -194 0 0 0 0 0 0 0 0 0 0 0 0 0 0 0 0 0 0 0 0 0 0 0 0 0 0 0 0 0 0 0 0 0
-98 -110 -122 -117 -117 -95 -75 -68 -67 -69 -66 -183 -160 -200 -231 -216 -208 0 0 0 0 0 0 0 0 0 0 0 0 0 0 0 0 0 0 0 0 0 0 0 0 0 0 0 0 0 0 0 0
-96 -113 -124 -186 -144 -119 -123 -74 -58 -74 -202 -276 -232 -243 -238 -210 -224 0 0 0 0 0 0 0 0 0 0 0 0 0 0 0 0 0 0 0 0 0 0 0 0 0 0 0 0 0 0 0 0
-17 -138 -125 -164 -128 -135 -108 -114 -113 -129 0 -231 -257 -255 -256 -242 0 0 0 0 0 0 0 0 0 0 0 0 0 0 0 0 0 0 0 0 0 0 0 0 0 0 0 0 0 0 0 0 0
-181 -95 -100 -147 -125 -115 -129 -114 -136 -177 -324 -270 -237 -246 -274 -300 -20 0 0 0 0 0 0 0 0 0 0 0 0 0 0 0 0 0 0 0 0 0 0 0 0 0 0 0 0 0 0 0 0
-99 -120 -48 -34 -123 -144 -107 -29 -97 -266 -267 -77 -257 -273 -286 -265 0 0 0 0 0 0 0 0 0 0 0 0 0 -38 -49 -57 -11 0 0 -57 0 0 0 0 0 0 0 0 0 0 0 0 0
-121 0 0 0 -212 -154 -123 -44 -167 -312 -287 -218 -138 0 0 -127 -269 0 0 0 0 0 0 0 0 0 0 -3 -85 -90 -96 -37 -22 -46 -24 0 0 0 0 0 0 0 0 0 0 0 0 0 0
0 0 0 0 -124 -180 -125 -81 -209 -256 -279 -225 -181 0 0 0 0 0 0 0 0 0 0 0 0 0 0 0 0 0 -81 -63 -58 -37 -32 0 0 0 0 0 0 0 0 0 0 0 0 0 0
0 0 0 0 -169 -142 -90 -109 -153 -210 -245 -223 -203 -274 0 0 0 0 0 0 0 0 0 0 0 0 0 -142 -104 -82 -45 -42 -38 -40 -61 -57 -33 -24 -35 -44 -46 -49 -48 -37 -32 -1 0 -1 -1
0 -68 -45 -104 -178 -143 -121 -80 -168 -229 -228 -179 -143 -176 -189 -142 -152 -119 -31 -45 0 -36 -10 -140 -146 -138 -123 -125 -96 -75 -52 -46 -46 -43 -39 -34 -31 -40 -41 -58 -68 -65 -25 -33 -27 -33 -12 0 -3
0 -61 -41 -41 -134 -191 -134 -64 -79 -217 -219 -186 -155 -130 -139 -108 -85 -57 -65 -77 -95 -113 -117 -131 -123 -111 -93 -86 -79 -66 -66 -28 0 -16 0 -3 -19 -20 -30 -56 -85 -44 -57 -40 -17 -19 -25 -4 -2
0 -12 -68 -69 -58 -15 -175 -22 -99 -147 -176 -218 -163 -110 -110 -73 -71 -39 -37 -42 -63 -86 -132 -134 -124 -76 -70 -72 -63 -41 -3 0 0 0 0 0 0 0 0 -56 -52 -38 -31 -49 -38 -24 -14 -19 -3
0 -11 -85 -95 -75 -64 -101 -62 -42 -205 -75 -104 -189 -158 -100 -71 -43 -39 -46 -68 -101 -128 -125 -119 -82 -66 -62 -62 -50 -35 0 0 0 0 0 0 -2 -54 -43 -43 -31 -8 0 -23 -28 -21 -15 -19 -17
-119 -73 -99 0 0 -42 -36 -57 -82 0 -51 -95 -186 -204 -124 -107 -93 -90 -122 -141 -135 -159 -105 -96 -89 -64 -65 -59 -51 -51 0 0 0 -28 -23 0 0 0 0 -35 -30 -9 0 -8 -28 -49 -15 -12 -15
-105 -43 -13 -12 -4 -23 0 -97 -45 -62 -138 -163 -177 -182 -195 -171 -122 -132 -102 -111 -128 -92 -88 -93 0 -25 -21 0 0 -59 0 -51 -40 -31 -31 0 0 0 0 -27 -16 -11 -7 -10 -5 -35 -40 -18 -28
-75 -44 -13 -14 -11 -14 0 -52 -30 -189 -202 -209 -219 -196 -225 -198 -144 -127 -125 -113 -98 -107 -71 -43 0 0 0 -55 0 -66 -61 -53 -44 -55 -64 -50 -38 -33 -30 -24 -11 -13 -9 -1 -7 -31 -16 -16 -54
-76 -39 -50 -44 0 0 0 0 0 0 0 -146 -166 -24 -24 -165 -148 -133 -135 -113 -93 -51 -45 -50 -9 -55 -90 -100 0 0 -67 -72 -58 -65 -73 -51 -43 -32 -27 -31 -28 -19 -12 0 0 -11 -1 -3 -21
-38 0 0 0 0 0 0 0 0 0 0 -71 -97 -122 -139 -14 -91 0 -141 -111 -98 -38 -71 0 0 -72 -75 0 -17 -74 -67 -59 -57 -108 -75 -37 -32 -30 -19 -34 -23 -15 -15 -4 0 -6 -34 -12 -12
0 0 0 0 0 0 0 0 0 -3 -9 -75 -55 -97 -139 0 0 -94 0 0 0 0 0 0 0 0 0 0 0 0 0 -10 0 -14 -51 -31 -6 -14 -25 -18 -9 -10 -15 -11 -1 -2 -1 -7 -29
0 0 0 0 0 0 0 0 0 0 0 0 -89 -139 -157 0 0 0 0 0 0 0 0 0 0 0 0 0 0 0 0 0 0 0 0 -18 -23 -22 -16 -6 -2 0 0 -4 -1 0 -11 -18 -15
Wind_Speed
20 17 17 5 12 11 7 9 10 11 11 13 11 12 13 15 15 15 14 12 13 12 12 13 15 16 16 17 17 17 17 17 17 17 18 18 18 17 18 18 19 19 20 20 20 21 20 20 20
18 17 18 11 11 6 5 9 14 13 14 15 13 13 15 14 15 14 13 14 13 12 12 13 15 16 16 16 17 17 17 17 18 18 18 18 18 19 19 20 20 20 21 21 21 22 22 22 22
16 13 12 7 6 6 7 11 16 14 16 15 15 14 14 14 13 14 12 14 13 12 13 13 14 15 16 16 17 17 17 18 18 18 19 19 20 20 20 20 21 22 23 23 23 23 23 23 23
15 13 11 4 4 7 14 15 19 17 14 14 15 15 14 12 13 14 16 15 14 13 13 13 14 14 15 16 17 17 18 18 19 19 19 20 20 20 20 21 22 22 23 23 24 23 23 24 24
13 15 4 7 8 8 16 19 18 17 16 16 14 15 14 12 14 15 15 15 13 12 12 12 13 14 15 16 17 18 19 19 19 20 20 20 20 21 21 22 23 23 23 24 24 24 24 24 24
14 12 4 8 6 18 21 19 17 17 16 16 15 15 14 13 13 15 15 14 12 12 12 12 12 13 14 15 16 17 18 19 20 20 20 21 21 21 22 22 23 25 24 24 25 24 25 24 24
6 6 7 11 13 18 18 16 16 16 17 17 15 16 14 12 13 14 13 12 12 11 11 11 12 13 13 14 15 16 16 18 18 19 21 22 22 21 23 22 23 26 23 25 25 23 24 23 22
9 14 12 13 14 17 18 17 16 15 16 16 16 15 14 12 13 13 12 11 11 11 11 11 12 12 12 13 15 15 15 16 17 18 19 21 22 22 22 21 23 24 22 22 22 23 24 23 23
12 15 13 13 16 17 17 17 16 16 17 16 15 16 15 14 13 11 10 10 10 10 10 11 11 11 11 12 14 15 15 15 16 18 18 20 21 21 21 23 24 24 23 23 22 24 24 25 25
13 14 13 12 14 15 15 14 14 16 15 13 14 15 15 14 13 11 9 9 8 8 8 9 11 12 11 14 16 17 14 15 17 18 19 20 21 22 23 24 24 24 24 21 22 24 24 25 26
14 15 14 13 13 13 12 11 11 12 13 12 11 12 13 12 10 10 9 8 8 8 8 8 11 13 12 14 15 17 16 15 17 18 18 19 20 21 23 24 24 23 23 21 22 23 25 26 26
14 15 15 17 16 12 10 11 10 8 13 12 9 11 11 10 10 10 9 7 7 6 7 8 9 10 11 13 16 17 17 16 16 18 19 19 20 21 22 24 23 23 23 22 22 24 25 26 25
15 16 16 18 15 11 10 10 10 8 9 13 12 10 10 10 9 9 8 7 6 5 5 6 8 9 11 13 15 16 18 16 17 18 20 20 21 22 23 24 24 24 22 23 23 24 25 25 26
15 16 17 18 15 12 10 12 13 10 10 10 9 8 9 9 7 6 5 5 5 5 5 6 7 9 11 14 16 17 18 17 18 19 21 22 21 21 23 22 22 23 22 23 24 24 25 26 26
16 17 18 13 13 14 11 9 3 9 8 7 7 7 7 7 6 4 4 4 4 4 6 7 10 12 12 13 15 17 17 17 18 20 21 22 22 22 19 19 19 20 21 21 22 23 23 23 24
18 18 20 17 13 14 10 13 9 7 5 5 5 4 4 3 4 4 4 3 5 6 7 7 10 10 11 13 14 15 16 18 19 21 21 23 22 22 19 18 18 19 20 21 21 22 23 23 25
19 21 18 20 9 14 7 15 19 9 6 5 2 2 2 1 2 3 3 2 4 6 8 6 6 9 11 13 14 15 18 20 20 21 23 25 24 21 18 18 18 18 19 20 21 21 23 26 28
26 21 20 17 14 8 9 5 21 13 8 5 3 2 1 2 0 2 2 2 4 6 6 7 8 10 12 12 15 17 20 20 20 21 24 26 25 23 18 19 19 18 18 20 21 21 23 25 28
25 20 18 19 16 12 11 11 17 15 9 4 4 5 3 3 2 3 2 1 4 5 5 7 10 11 13 15 18 19 21 23 23 23 26 27 24 23 21 22 22 19 18 20 21 22 24 26 27
25 23 23 19 17 13 22 18 23 16 10 5 5 5 4 4 4 5 4 4 4 4 4 8 8 13 15 17 18 19 23 22 23 26 28 27 26 24 26 26 23 20 20 20 21 21 25 26 25
28 25 21 23 18 19 25 26 23 18 13 9 5 5 5 5 5 6 5 4 5 5 7 9 11 15 16 18 18 20 21 21 22 25 28 28 27 28 28 28 24 22 21 21 21 21 21 25 25
34 23 17 18 22 26 21 29 27 22 19 11 8 7 6 6 6 6 5 5 7 8 9 12 15 17 17 17 18 19 20 22 24 26 28 29 29 30 31 31 27 23 21 20 21 21 20 22 26
27 20 20 19 23 25 23 25 26 24 25 17 11 7 6 6 6 5 7 8 10 11 12 14 16 17 18 17 18 17 19 20 24 27 31 31 31 30 31 31 29 26 23 20 19 18 19 21 27
17 19 22 24 24 27 26 22 27 25 24 25 21 9 5 5 6 6 10 11 11 11 11 14 16 17 18 17 17 18 20 22 25 29 32 33 34 33 32 31 29 27 24 19 18 20 21 20 22
17 23 29 29 28 35 22 23 25 24 25 24 23 14 9 9 7 6 7 9 10 10 15 17 16 19 18 18 20 21 23 24 25 29 31 34 34 34 33 31 28 27 24 17 16 17 20 21 22
19 20 24 34 36 42 22 25 25 22 26 20 19 14 10 9 7 7 10 10 10 13 19 15 18 19 19 22 23 23 25 27 26 28 32 34 34 34 31 29 28 26 22 18 16 15 17 24 8
21 21 22 26 27 29 26 23 24 24 22 19 18 14 9 8 8 10 12 10 10 17 15 18 21 21 22 25 25 27 28 29 29 30 33 34 32 31 30 29 28 25 19 18 11 10 8 6 7
20 20 24 23 27 30 27 28 28 27 24 19 17 13 10 9 10 12 11 13 15 18 18 22 22 23 26 27 26 27 29 31 32 33 35 33 31 30 30 29 27 23 20 22 10 8 8 12 18
23 22 22 21 21 27 30 28 25 26 28 25 18 16 13 11 11 12 15 18 20 21 22 24 25 26 27 27 28 29 32 32 35 35 34 30 29 29 30 29 25 21 25 18 9 6 12 5 14
18 20 21 21 22 22 25 26 25 27 27 23 20 18 14 12 12 16 19 21 23 22 25 24 26 27 27 29 30 32 33 35 36 36 32 26 26 29 30 28 25 24 23 15 7 3 3 4 13
Wind_Direction
125 112 106 230 292 350 291 249 261 343 336 319 335 18 6 339 355 2 62 52 68 50 41 49 45 37 33 28 21 18 11 10 6 3 5 3 354 342 344 350 344 340 331 328 325 323 325 323 322
131 137 144 328 22 13 264 255 21 349 26 33 8 6 4 4 356 36 63 73 61 53 43 39 38 34 30 26 24 17 13 7 3 2 360 356 348 345 336 335 335 341 333 329 325 321 317 317 316
168 180 194 239 278 248 252 35 51 33 38 21 28 348 360 5 1 73 47 79 66 53 45 38 32 31 31 28 19 14 8 5 3 359 355 348 344 344 339 339 334 332 327 322 322 321 320 318 315
221 213 214 248 336 310 31 44 70 52 1 339 29 19 358 311 43 66 88 84 72 58 46 36 29 28 23 16 12 10 6 2 357 354 349 346 343 339 337 338 336 335 331 329 326 325 321 316 312
196 182 268 359 355 323 40 77 70 39 13 18 353 27 24 352 43 71 81 81 72 60 48 39 32 26 18 11 7 8 6 2 0 357 353 347 344 338 336 335 334 332 331 329 328 325 321 318 314
186 195 340 12 321 58 77 81 53 18 24 22 15 22 10 24 57 80 84 78 70 63 51 41 38 32 23 18 15 11 8 6 4 4 360 351 346 342 339 337 332 326 327 329 328 326 323 320 317
235 294 337 8 7 49 83 75 69 54 54 44 49 32 23 54 79 84 81 74 66 60 58 52 46 39 37 31 24 20 18 14 9 4 360 355 354 350 342 343 336 330 332 327 326 328 327 324 323
286 7 12 1 12 41 83 86 43 43 23 40 29 71 63 83 90 81 75 71 71 68 62 54 48 46 40 36 30 30 25 20 15 9 4 358 354 354 353 351 342 338 338 335 333 329 328 328 325
257 26 34 17 48 70 91 86 48 40 59 58 53 32 32 88 90 74 69 66 71 73 65 55 51 50 45 37 26 16 14 18 15 10 6 1 358 357 355 348 343 338 335 330 330 328 326 324 322
356 35 49 18 32 70 94 88 75 63 58 66 63 45 68 92 97 89 86 84 87 80 69 56 41 34 38 25 15 11 16 13 8 4 1 357 353 351 347 345 342 338 335 335 330 328 327 324 321
12 13 43 41 24 43 84 74 62 48 57 73 70 78 84 90 95 92 90 91 89 89 52 51 23 24 28 22 16 12 11 6 3 2 1 357 353 349 347 345 343 340 336 335 332 328 325 322 321
352 1 22 350 344 30 88 56 38 59 35 49 68 81 91 99 106 106 90 79 79 68 40 34 33 38 32 22 13 8 4 3 2 1 359 354 353 351 346 345 343 342 341 339 334 328 326 323 320
349 353 360 322 20 51 31 18 19 30 44 36 52 74 94 100 95 102 101 82 75 61 49 41 39 23 19 19 10 6 2 1 357 355 352 351 347 345 341 339 337 338 341 340 336 333 329 325 320
346 347 352 359 20 32 33 13 358 14 36 39 57 74 103 102 96 78 66 86 95 70 47 29 24 17 9 1 2 358 356 355 352 347 344 343 344 341 338 337 337 338 340 339 337 333 328 324 323
352 349 354 19 29 18 45 29 88 18 34 38 43 70 106 122 79 78 108 113 77 33 8 357 347 349 357 357 352 351 351 348 345 343 341 340 339 338 339 337 340 340 341 339 338 337 334 330 327
346 349 345 359 13 6 20 1 26 27 30 14 41 83 97 105 94 87 74 49 3 2 356 356 348 353 352 349 348 347 348 345 342 341 339 335 336 335 335 335 334 336 338 339 336 336 334 331 327
345 337 348 343 23 13 33 360 359 22 14 355 42 78 91 40 21 47 87 69 21 4 356 359 358 343 344 346 347 345 343 339 336 336 335 333 331 332 331 332 331 332 332 334 333 332 329 325 323
329 336 343 349 4 29 16 332 347 0 358 343 337 342 344 0 232 54 63 32 17 2 5 353 348 343 343 343 343 341 340 342 341 336 334 333 330 328 328 328 327 326 326 328 329 329 328 325 320
330 340 342 345 359 5 352 345 348 345 341 322 311 309 301 307 343 347 348 12 358 358 1 353 349 347 345 344 343 343 341 340 339 337 332 333 333 330 328 325 325 322 319 322 324 325 324 321 319
332 329 331 345 353 353 343 346 343 343 336 306 286 290 276 299 324 345 348 354 358 356 355 353 354 348 348 347 347 345 342 342 340 334 330 332 333 330 326 324 322 318 315 315 317 320 322 319 317
324 328 332 336 348 346 340 339 349 357 355 344 283 275 293 275 305 325 331 341 347 347 349 353 351 349 348 349 348 346 347 347 346 340 333 334 335 332 328 326 322 316 310 308 312 315 317 317 316
308 336 340 344 341 335 349 335 344 351 354 349 334 264 274 287 300 315 326 328 327 334 340 348 350 351 350 351 348 347 348 348 349 344 338 335 337 334 330 327 325 320 314 305 306 311 311 311 308
329 343 340 346 337 336 339 336 345 349 348 346 342 321 264 293 300 299 321 325 330 341 346 349 349 349 349 350 349 349 349 349 345 342 336 334 335 336 332 331 330 325 317 310 306 304 304 309 303
347 342 337 336 338 332 337 338 343 345 350 350 353 348 340 317 317 314 330 338 343 350 358 350 343 346 349 349 348 345 344 344 340 338 336 334 335 335 334 335 334 333 327 316 309 305 304 305 304
339 329 324 328 331 326 345 341 341 348 345 345 350 357 4 2 7 12 357 354 355 0 353 352 350 345 349 347 342 340 338 337 337 336 336 333 333 333 334 334 336 334 335 328 317 309 307 303 306
332 333 330 323 321 316 345 341 351 355 350 357 356 3 10 11 12 5 4 8 6 351 340 347 348 345 346 342 340 338 335 334 337 338 334 333 333 333 335 334 334 334 336 334 319 299 314 297 308
331 332 338 330 333 330 339 347 349 354 358 1 4 7 9 10 2 346 346 354 352 348 342 339 343 343 343 342 340 337 335 334 334 336 333 332 334 334 334 334 335 338 340 330 320 308 308 287 304
334 341 336 339 335 332 338 342 345 350 356 360 2 4 4 7 358 349 342 340 345 340 341 341 342 341 340 341 339 337 335 334 334 334 332 332 334 334 334 333 335 340 338 327 315 303 290 300 298
329 335 340 340 340 336 337 344 352 354 353 354 354 357 358 354 351 347 342 342 341 338 340 341 342 341 340 341 340 338 335 336 334 332 332 335 336 335 333 333 338 340 332 333 322 297 296 268 297
342 343 343 340 342 343 341 346 2 355 354 356 356 353 356 358 353 349 347 344 341 337 338 341 344 344 343 343 341 339 338 336 335 335 336 339 338 336 333 336 340 339 331 336 334 201 248 288 300